period_start,C,m1,H,J0,J1,J2,J3,J4,J5,JA,JB,JC,JD,JJ,JK,JN,#
2015-07-02 00:00:57,0.02,0.09,0.00,27.97,32.34,34.76,4.63,27.11,1004.40,2015.97,3427.25,3255.99,3535.01,349.68,337.52,10.84,0000 0000 0000 0000 000000
2015-07-02 00:05:58,-0.01,0.09,0.00,27.97,32.30,34.69,4.63,27.25,1004.39,2015.99,3427.69,3256.01,3535.14,349.84,337.71,10.87,0000 0000 0000 0000 000000
2015-07-02 00:11:00,-0.05,0.09,0.00,27.97,32.26,34.67,4.67,27.26,1004.39,2015.99,3427.96,3256.45,3535.80,350.07,337.94,10.90,0000 0000 0000 0000 000000
2015-07-02 00:16:01,-0.01,0.09,0.00,27.96,32.23,34.66,4.63,27.34,1004.25,2016.01,3427.99,3256.95,3535.99,349.92,337.74,10.93,0000 0000 0000 0000 000000
2015-07-02 00:21:03,0.00,0.09,0.00,27.94,32.21,34.60,4.68,27.26,1003.94,2016.04,3428.01,3256.99,3535.99,349.83,337.55,10.96,0000 0000 0000 0000 000000
2015-07-02 00:26:04,0.04,0.09,0.00,27.91,32.17,34.58,4.66,27.42,1003.90,2016.24,3428.17,3256.99,3536.01,350.39,338.29,10.99,0000 0000 0000 0000 000000
2015-07-02 00:31:05,0.05,0.09,0.00,27.87,32.14,34.56,4.67,27.52,1003.82,2016.67,3428.58,3257.03,3536.07,350.12,337.87,11.02,0000 0000 0000 0000 000000
2015-07-02 00:36:06,-0.00,0.09,0.00,27.83,32.11,34.57,4.64,27.54,1003.81,2016.96,3428.93,3257.18,3536.63,350.27,338.06,11.05,0000 0000 0000 0000 000000
2015-07-02 00:41:07,0.00,0.09,0.00,27.78,32.08,34.55,4.58,27.68,1003.82,2016.98,3428.87,3257.17,3536.70,349.23,337.08,11.08,0000 0000 0000 0000 000000
2015-07-02 00:46:09,0.03,0.10,0.00,27.74,32.05,34.52,4.62,27.56,1003.66,2016.99,3428.64,3257.02,3536.11,349.60,337.33,11.11,0000 0000 0000 0000 000000
2015-07-02 00:51:10,-0.02,0.10,0.00,27.70,32.02,34.49,4.64,27.49,1003.51,2017.00,3428.81,3257.03,3536.40,349.75,337.54,11.13,0000 0000 0000 0000 000000
2015-07-02 00:56:11,-0.02,0.09,0.00,27.66,31.99,34.45,4.64,27.57,1003.43,2017.06,3428.97,3257.31,3536.83,349.70,337.54,11.16,0000 0000 0000 0000 000000
2015-07-02 01:01:12,0.08,0.10,0.00,27.61,31.96,34.41,4.63,27.63,1003.42,2017.56,3428.99,3257.93,3536.99,349.96,337.79,11.19,0000 0000 0000 0000 000000
2015-07-02 01:06:14,0.02,0.10,0.00,27.59,31.92,34.38,4.60,27.73,1003.43,2017.81,3429.00,3257.98,3536.99,349.44,337.70,11.22,0000 0000 0000 0000 000000
2015-07-02 01:11:15,0.01,0.10,0.00,27.54,31.89,34.34,4.63,27.64,1003.44,2017.96,3429.06,3257.99,3537.12,350.03,337.99,11.25,0000 0000 0000 0000 000000
2015-07-02 01:16:16,-0.02,0.10,0.00,27.51,31.86,34.31,4.69,27.54,1003.64,2017.99,3429.26,3258.02,3537.72,350.29,338.41,11.28,0000 0000 0000 0000 000000
2015-07-02 01:21:17,-0.04,0.10,0.00,27.48,31.82,34.28,4.59,27.48,1003.92,2018.00,3429.74,3258.46,3537.97,349.80,338.02,11.31,0000 0000 0000 0000 000000
2015-07-02 01:26:18,-0.00,0.10,0.00,27.45,31.79,34.22,4.67,27.44,1003.92,2018.05,3429.99,3258.95,3538.01,350.20,338.28,11.34,0000 0000 0000 0000 000000
2015-07-02 01:31:20,0.03,0.10,0.00,27.42,31.75,34.19,4.58,27.68,1003.92,2018.25,3429.99,3258.99,3538.03,349.87,338.08,11.37,0000 0000 0000 0000 000000
2015-07-02 01:36:21,0.06,0.10,0.00,27.39,31.71,34.18,4.66,27.66,1003.93,2018.75,3430.13,3259.02,3538.59,350.01,338.33,11.40,0000 0000 0000 0000 000000
2015-07-02 01:41:22,-0.01,0.10,0.00,27.37,31.68,34.13,4.66,27.59,1004.22,2018.97,3430.50,3259.28,3538.97,350.13,338.74,11.43,0000 0000 0000 0000 000000
2015-07-02 01:46:23,-0.03,0.10,0.00,27.35,31.65,34.10,4.67,27.73,1004.42,2018.99,3430.94,3259.88,3538.99,349.93,338.17,11.46,0000 0000 0000 0000 000000
2015-07-02 01:51:24,-0.00,0.10,0.00,27.33,31.61,34.06,4.57,27.48,1004.57,2018.99,3430.99,3259.99,3539.10,349.26,337.90,11.49,0000 0000 0000 0000 000000
2015-07-02 01:56:26,-0.01,0.10,0.00,27.31,31.58,34.01,4.72,27.51,1004.85,2019.02,3431.00,3260.00,3539.63,350.67,339.39,11.52,0000 0000 0000 0000 000000
2015-07-02 02:01:27,-0.00,0.10,0.00,27.30,31.55,33.99,4.63,27.43,1004.92,2019.09,3431.07,3260.10,3539.97,350.03,338.63,11.54,0000 0000 0000 0000 000000
2015-07-02 02:06:28,0.04,0.10,0.00,27.29,31.52,33.95,4.69,27.36,1005.25,2019.59,3431.61,3260.73,3539.99,350.06,338.85,11.57,0000 0000 0000 0000 000000
2015-07-02 02:11:30,0.02,0.10,0.00,27.28,31.49,33.92,4.59,27.27,1005.40,2019.83,3431.94,3260.95,3540.02,349.41,338.50,11.60,0000 0000 0000 0000 000000
2015-07-02 02:16:31,0.00,0.10,0.00,27.25,31.46,33.90,4.66,27.23,1005.44,2019.97,3431.99,3260.99,3540.20,349.89,338.97,11.63,0000 0000 0000 0000 000000
2015-07-02 02:21:32,-0.00,0.10,0.00,27.23,31.43,33.86,4.65,27.24,1005.64,2019.99,3431.99,3261.01,3540.66,350.31,339.45,11.66,0000 0000 0000 0000 000000
2015-07-02 02:26:33,-0.01,0.10,0.00,27.21,31.41,33.84,4.65,27.28,1005.74,2019.99,3432.01,3261.20,3540.98,349.00,338.00,11.69,0000 0000 0000 0000 000000
2015-07-02 02:31:34,-0.02,0.10,0.00,27.20,31.38,33.82,4.64,27.13,1005.87,2020.00,3432.03,3261.54,3540.99,349.54,338.90,11.72,0000 0000 0000 0000 000000
2015-07-02 02:36:36,-0.01,0.10,0.00,27.20,31.36,33.77,4.65,27.28,1005.86,2020.02,3432.17,3261.91,3540.99,349.98,339.19,11.75,0000 0000 0000 0000 000000
2015-07-02 02:41:37,-0.01,0.10,0.00,27.19,31.33,33.75,4.71,27.19,1005.86,2020.05,3432.31,3261.96,3541.01,349.92,339.00,11.78,0000 0000 0000 0000 000000
2015-07-02 02:46:38,0.00,0.10,0.00,27.18,31.31,33.74,4.67,27.16,1005.76,2020.13,3432.73,3261.98,3541.08,349.94,339.14,11.81,0000 0000 0000 0000 000000
2015-07-02 02:51:40,0.07,0.10,0.00,27.16,31.29,33.68,4.68,27.20,1005.84,2020.66,3432.97,3261.99,3541.65,350.12,339.37,11.84,0000 0000 0000 0000 000000
2015-07-02 02:56:41,-0.00,0.10,0.00,27.15,31.27,33.69,4.62,27.20,1005.87,2020.78,3432.99,3262.01,3541.90,349.89,339.15,11.87,0000 0000 0000 0000 000000
2015-07-02 03:01:42,0.01,0.10,0.00,27.12,31.25,33.69,4.64,27.14,1006.02,2020.94,3432.99,3262.10,3541.98,349.98,339.40,11.90,0000 0000 0000 0000 000000
2015-07-02 03:06:44,-0.01,0.10,0.00,27.11,31.22,33.65,4.66,27.24,1006.27,2020.97,3432.99,3262.38,3541.99,349.51,339.02,11.93,0000 0000 0000 0000 000000
2015-07-02 03:11:45,-0.02,0.10,0.00,27.10,31.20,33.62,4.65,27.14,1006.36,2020.98,3433.03,3262.82,3542.01,349.72,339.10,11.96,0000 0000 0000 0000 000000
2015-07-02 03:16:46,-0.01,0.10,0.00,27.08,31.18,33.60,4.64,27.11,1006.36,2020.99,3433.13,3262.97,3542.01,350.02,339.59,11.98,0000 0000 0000 0000 000000
2015-07-02 03:21:48,-0.00,0.10,0.00,27.07,31.16,33.58,4.70,27.35,1006.36,2020.99,3433.25,3262.99,3542.07,349.93,339.43,12.01,0000 0000 0000 0000 000000
2015-07-02 03:26:49,-0.02,0.10,0.00,27.07,31.15,33.57,4.67,27.34,1006.36,2021.01,3433.72,3262.99,3542.43,349.53,339.05,12.04,0000 0000 0000 0000 000000
2015-07-02 03:31:50,-0.01,0.10,0.00,27.07,31.12,33.56,4.64,27.30,1006.32,2021.00,3433.87,3262.99,3542.70,350.25,339.58,12.07,0000 0000 0000 0000 000000
2015-07-02 03:36:52,0.00,0.10,0.00,27.06,31.10,33.53,4.64,27.48,1005.96,2021.02,3433.95,3263.00,3542.90,349.78,339.29,12.10,0000 0000 0000 0000 000000
2015-07-02 03:41:53,0.01,0.10,0.00,27.05,31.09,33.51,4.67,27.64,1005.86,2021.12,3433.97,3263.02,3542.97,349.81,339.07,12.13,0000 0000 0000 0000 000000
2015-07-02 03:46:54,0.03,0.10,0.00,27.04,31.07,33.51,4.63,27.66,1005.67,2021.35,3433.99,3263.17,3542.99,350.15,339.46,12.16,0000 0000 0000 0000 000000
2015-07-02 03:51:55,0.04,0.10,0.00,27.02,31.05,33.51,4.68,27.85,1005.37,2021.55,3433.99,3263.38,3542.99,350.20,339.41,12.19,0000 0000 0000 0000 000000
2015-07-02 03:56:57,0.02,0.10,0.00,27.01,31.04,33.49,4.67,28.05,1005.30,2021.68,3433.99,3263.20,3543.00,350.19,339.58,12.22,0000 0000 0000 0000 000000
2015-07-02 04:01:58,0.03,0.10,0.00,26.98,31.02,33.46,4.72,27.66,1005.37,2021.84,3433.99,3263.08,3542.98,349.61,338.65,12.25,0000 0000 0000 0000 000000
2015-07-02 04:06:59,0.01,0.10,0.00,26.96,31.00,33.46,4.65,27.66,1005.39,2021.96,3433.98,3263.15,3542.99,349.89,339.19,12.28,0000 0000 0000 0000 000000
2015-07-02 04:12:00,-0.02,0.10,0.00,26.93,30.99,33.45,4.65,27.53,1005.40,2021.98,3433.99,3263.58,3543.00,349.93,339.28,12.31,0000 0000 0000 0000 000000
2015-07-02 04:17:02,-0.00,0.10,0.00,26.89,30.97,33.45,4.65,27.43,1005.61,2021.99,3433.99,3263.89,3543.01,349.97,339.80,12.34,0000 0000 0000 0000 000000
2015-07-02 04:22:03,-0.00,0.10,0.00,26.86,30.95,33.42,4.65,27.44,1005.85,2021.99,3434.00,3263.97,3543.09,349.93,339.33,12.37,0000 0000 0000 0000 000000
2015-07-02 04:27:04,-0.00,0.10,0.00,26.84,30.93,33.40,4.71,27.64,1005.86,2021.99,3434.00,3263.97,3543.22,350.24,339.88,12.39,0000 0000 0000 0000 000000
2015-07-02 04:32:05,-0.01,0.10,0.00,26.82,30.91,33.39,4.67,27.61,1005.87,2021.99,3434.00,3263.97,3543.40,350.10,339.57,12.42,0000 0000 0000 0000 000000
2015-07-02 04:37:06,-0.01,0.10,0.00,26.81,30.90,33.35,4.65,27.51,1005.87,2022.03,3434.01,3263.99,3543.93,349.77,339.26,12.45,0000 0000 0000 0000 000000
2015-07-02 04:42:07,0.01,0.10,0.00,26.80,30.87,33.33,4.67,27.55,1005.87,2022.07,3434.04,3264.00,3543.95,349.63,339.35,12.48,0000 0000 0000 0000 000000
2015-07-02 04:47:08,0.02,0.10,0.00,26.78,30.86,33.32,4.65,27.45,1005.87,2022.32,3434.39,3264.05,3543.98,349.63,339.42,12.51,0000 0000 0000 0000 000000
2015-07-02 04:52:10,-0.01,0.10,0.00,26.77,30.84,33.28,4.63,27.42,1005.90,2022.41,3434.64,3264.12,3543.99,349.70,339.56,12.54,0000 0000 0000 0000 000000
2015-07-02 04:57:11,0.06,0.10,0.00,26.75,30.82,33.28,4.66,27.39,1005.91,2022.82,3434.82,3264.56,3544.00,349.79,339.36,12.57,0000 0000 0000 0000 000000
2015-07-02 05:02:13,0.00,0.10,0.00,26.72,30.80,33.27,4.67,27.34,1005.90,2022.96,3434.96,3264.89,3544.06,349.98,339.58,12.60,0000 0000 0000 0000 000000
2015-07-02 05:07:14,-0.01,0.10,0.00,26.72,30.77,33.23,4.69,27.38,1005.89,2022.99,3434.99,3264.98,3544.29,350.41,340.14,12.63,0000 0000 0000 0000 000000
2015-07-02 05:12:15,-0.00,0.10,0.00,26.70,30.76,33.24,4.68,27.38,1005.87,2022.99,3434.99,3264.99,3544.63,350.32,340.23,12.66,0000 0000 0000 0000 000000
2015-07-02 05:17:17,-0.00,0.10,0.00,26.68,30.74,33.20,4.70,27.57,1005.90,2022.99,3435.00,3264.99,3544.75,349.83,339.61,12.69,0000 0000 0000 0000 000000
2015-07-02 05:22:18,-0.00,0.10,0.00,26.66,30.72,33.19,4.73,27.42,1006.27,2022.99,3435.01,3265.01,3544.96,350.09,340.16,12.72,0000 0000 0000 0000 000000
2015-07-02 05:27:19,-0.00,0.10,0.00,26.65,30.70,33.16,4.68,27.27,1006.36,2023.00,3435.03,3265.04,3544.99,349.81,339.80,12.75,0000 0000 0000 0000 000000
2015-07-02 05:32:20,-0.00,0.10,0.00,26.63,30.68,33.16,4.69,27.35,1006.36,2023.01,3435.08,3265.14,3544.99,349.80,339.98,12.78,0000 0000 0000 0000 000000
2015-07-02 05:37:21,-0.03,0.10,0.00,26.61,30.66,33.10,4.76,27.48,1006.36,2023.03,3435.42,3265.48,3545.00,350.61,340.43,12.80,0000 0000 0000 0000 000000
2015-07-02 05:42:23,0.02,0.10,0.00,26.60,30.64,33.10,4.66,27.38,1006.36,2023.06,3435.21,3265.52,3545.01,350.24,340.37,12.83,0000 0000 0000 0000 000000
2015-07-02 05:47:24,-0.03,0.10,0.00,26.58,30.62,33.06,4.74,27.36,1006.36,2023.11,3435.73,3265.84,3545.03,350.02,339.96,12.86,0000 0000 0000 0000 000000
2015-07-02 05:52:25,0.05,0.10,0.00,26.56,30.60,33.05,4.70,27.32,1006.39,2023.36,3435.91,3265.95,3545.12,350.37,340.46,12.89,0000 0000 0000 0000 000000
2015-07-02 05:57:27,0.02,0.10,0.00,26.55,30.59,33.06,4.74,27.35,1006.54,2023.71,3435.99,3265.99,3545.47,350.32,340.48,12.92,0000 0000 0000 0000 000000
2015-07-02 06:02:28,0.02,0.10,0.00,26.55,30.57,33.05,4.70,27.29,1006.67,2023.81,3435.99,3265.99,3545.75,349.96,340.23,12.95,0000 0000 0000 0000 000000
2015-07-02 06:07:29,0.01,0.10,0.00,26.54,30.55,32.99,4.72,27.38,1006.69,2023.97,3435.99,3266.00,3545.96,350.47,340.68,12.98,0000 0000 0000 0000 000000
2015-07-02 06:12:30,0.00,0.10,0.00,26.52,30.53,32.99,4.67,27.39,1006.46,2023.96,3435.99,3266.03,3545.97,350.12,340.28,13.01,0000 0000 0000 0000 000000
2015-07-02 06:17:32,0.00,0.10,0.00,26.51,30.51,32.98,4.68,27.49,1006.41,2023.98,3435.99,3266.05,3545.95,350.18,340.14,13.04,0000 0000 0000 0000 000000
2015-07-02 06:22:33,-0.01,0.10,0.00,26.50,30.50,32.95,4.66,27.51,1006.38,2023.98,3436.01,3266.20,3545.98,349.69,340.09,13.07,0000 0000 0000 0000 000000
2015-07-02 06:27:34,-0.01,0.10,0.00,26.50,30.48,32.90,4.71,27.41,1006.58,2023.99,3436.03,3266.57,3545.99,350.30,340.69,13.10,0000 0000 0000 0000 000000
2015-07-02 06:32:35,-0.01,0.10,0.00,26.48,30.47,32.91,4.68,27.29,1006.84,2023.99,3436.02,3266.77,3546.00,349.98,340.43,13.13,0000 0000 0000 0000 000000
2015-07-02 06:37:36,-0.00,0.10,0.00,26.47,30.45,32.91,4.72,27.39,1006.85,2023.99,3436.03,3266.87,3546.00,349.89,340.24,13.16,0000 0000 0000 0000 000000
2015-07-02 06:42:37,0.00,0.10,0.00,26.47,30.43,32.85,4.70,27.34,1006.85,2023.99,3436.01,3266.89,3546.00,349.96,340.21,13.19,0000 0000 0000 0000 000000
2015-07-02 06:47:39,-0.00,0.10,0.00,26.46,30.42,32.86,4.64,27.25,1006.86,2024.02,3436.04,3266.97,3546.05,349.97,340.35,13.21,0000 0000 0000 0000 000000
2015-07-02 06:52:40,-0.00,0.10,0.00,26.46,30.40,32.85,4.68,27.20,1006.93,2024.06,3436.06,3266.99,3546.25,349.69,340.22,13.24,0000 0000 0000 0000 000000
2015-07-02 06:57:41,-0.01,0.10,0.00,26.45,30.39,32.82,4.66,27.27,1007.09,2024.09,3436.35,3266.99,3546.40,349.56,340.09,13.27,0000 0000 0000 0000 000000
2015-07-02 07:02:43,0.02,0.10,0.00,26.45,30.37,32.82,4.72,27.20,1007.06,2024.15,3436.33,3266.99,3546.62,350.63,341.03,13.30,0000 0000 0000 0000 000000
2015-07-02 07:07:44,0.01,0.10,0.00,26.45,30.36,32.83,4.71,27.27,1006.89,2024.20,3436.12,3266.99,3546.62,350.29,340.55,13.33,0000 0000 0000 0000 000000
2015-07-02 07:12:46,0.05,0.10,0.00,26.45,30.35,32.79,4.67,27.23,1006.89,2024.42,3436.12,3266.99,3546.75,350.07,340.61,13.36,0000 0000 0000 0000 000000
2015-07-02 07:17:47,0.03,0.11,0.00,26.47,30.33,32.77,4.64,27.23,1006.88,2024.79,3436.24,3267.01,3546.88,349.91,340.26,13.39,0000 0000 0000 0000 000000
2015-07-02 07:22:49,0.00,0.11,0.00,26.47,30.32,32.76,4.66,27.27,1006.89,2024.77,3436.17,3267.01,3546.85,349.50,339.85,13.42,0000 0000 0000 0000 000000
2015-07-02 07:27:49,0.01,0.11,0.00,26.47,30.31,32.74,4.69,27.23,1006.97,2024.93,3436.33,3267.05,3546.97,350.29,340.43,13.45,0000 0000 0000 0000 000000
2015-07-02 07:32:51,0.01,0.11,0.00,26.47,30.30,32.71,4.70,27.27,1007.14,2024.97,3436.22,3267.05,3546.94,350.23,340.66,13.48,0000 0000 0000 0000 000000
2015-07-02 07:37:51,-0.00,0.11,0.00,26.47,30.29,32.70,4.71,27.36,1007.13,2024.95,3436.16,3267.05,3546.95,350.00,340.32,13.51,0000 0000 0000 0000 000000
2015-07-02 07:42:53,0.00,0.11,0.00,26.46,30.27,32.68,4.76,27.38,1007.09,2024.98,3436.11,3267.05,3546.95,350.29,340.51,13.54,0000 0000 0000 0000 000000
2015-07-02 07:47:54,-0.01,0.11,0.00,26.45,30.27,32.66,4.61,27.15,1007.19,2024.99,3436.21,3267.28,3546.98,349.85,340.44,13.57,0000 0000 0000 0000 000000
2015-07-02 07:52:55,-0.01,0.11,0.00,26.43,30.26,32.64,4.68,27.09,1007.19,2024.99,3436.22,3267.63,3546.99,349.78,340.29,13.60,0000 0000 0000 0000 000000
2015-07-02 07:57:56,0.01,0.11,0.00,26.43,30.25,32.64,4.67,27.13,1007.02,2024.99,3436.08,3267.64,3546.99,349.60,339.93,13.62,0000 0000 0000 0000 000000
2015-07-02 08:02:57,0.00,0.11,0.00,26.42,30.25,32.64,4.61,27.18,1007.08,2024.99,3436.02,3267.54,3546.99,349.39,340.07,13.65,0000 0000 0000 0000 000000
2015-07-02 08:07:58,-0.00,0.11,0.00,26.42,30.23,32.64,4.66,27.27,1007.01,2024.99,3436.01,3267.56,3546.99,349.37,339.91,13.68,0000 0000 0000 0000 000000
2015-07-02 08:13:00,-0.00,0.11,0.00,26.41,30.22,32.63,4.77,27.30,1007.08,2025.00,3436.00,3267.60,3546.99,350.53,341.07,13.71,0000 0000 0000 0000 000000
2015-07-02 08:18:01,0.01,0.11,0.00,26.42,30.22,32.62,4.62,27.31,1007.19,2025.01,3436.00,3267.57,3546.99,350.19,340.60,13.74,0000 0000 0000 0000 000000
2015-07-02 08:23:02,-0.01,0.11,0.00,26.45,30.21,32.60,4.69,27.29,1007.24,2025.02,3436.00,3267.72,3546.99,350.22,340.61,13.77,0000 0000 0000 0000 000000
2015-07-02 08:28:03,-0.01,0.11,0.00,26.42,30.20,32.60,4.66,27.27,1007.06,2025.03,3436.00,3267.85,3546.99,350.01,340.61,13.80,0000 0000 0000 0000 000000
2015-07-02 08:33:05,0.01,0.11,0.00,26.41,30.20,32.58,4.65,27.27,1007.26,2025.10,3436.00,3267.92,3547.00,349.81,340.57,13.83,0000 0000 0000 0000 000000
2015-07-02 08:38:06,0.01,0.11,0.00,26.40,30.19,32.58,4.76,27.31,1007.33,2025.09,3435.99,3267.70,3546.99,350.65,340.97,13.86,0000 0000 0000 0000 000000
2015-07-02 08:43:07,0.01,0.11,0.00,26.40,30.17,32.57,4.69,27.20,1007.34,2025.12,3435.98,3267.42,3546.99,349.88,340.54,13.89,0000 0000 0000 0000 000000
2015-07-02 08:48:08,0.01,0.11,0.00,26.38,30.17,32.57,4.68,27.10,1007.35,2025.12,3435.97,3267.37,3546.99,349.56,340.28,13.92,0000 0000 0000 0000 000000
2015-07-02 08:53:10,0.02,0.11,0.00,26.39,30.17,32.55,4.62,27.09,1007.38,2025.25,3435.92,3267.44,3546.99,349.51,340.15,13.95,0000 0000 0000 0000 000000
2015-07-02 08:58:11,0.01,0.11,0.00,26.39,30.15,32.55,4.72,27.18,1007.36,2025.44,3435.96,3267.76,3546.99,350.30,341.02,13.98,0000 0000 0000 0000 000000
2015-07-02 09:03:12,0.00,0.11,0.00,26.38,30.15,32.52,4.67,27.22,1007.36,2025.47,3435.91,3267.67,3546.99,350.21,340.74,14.01,0000 0000 0000 0000 000000
2015-07-02 09:08:14,0.04,0.11,0.00,26.37,30.15,32.52,4.72,27.13,1007.35,2025.75,3435.89,3267.74,3546.99,350.58,341.22,14.03,0000 0000 0000 0000 000000
2015-07-02 09:13:15,0.01,0.11,0.00,26.37,30.14,32.50,4.68,27.11,1007.34,2025.75,3435.65,3267.50,3546.99,350.15,340.69,14.06,0000 0000 0000 0000 000000
2015-07-02 09:18:16,0.01,0.11,0.00,26.37,30.13,32.50,4.60,27.11,1007.35,2025.79,3435.60,3267.65,3546.99,349.43,340.07,14.09,0000 0000 0000 0000 000000
2015-07-02 09:23:17,0.01,0.11,0.00,26.39,30.12,32.50,4.64,27.10,1007.38,2025.90,3435.72,3267.87,3546.99,349.71,340.35,14.12,0000 0000 0000 0000 000000
2015-07-02 09:28:18,0.02,0.11,0.00,26.40,30.12,32.49,4.65,27.13,1007.39,2025.92,3435.34,3267.73,3546.99,349.19,339.78,14.15,0000 0000 0000 0000 000000
2015-07-02 09:33:19,0.01,0.11,0.00,26.42,30.12,32.47,4.69,27.18,1007.49,2025.89,3435.03,3267.35,3546.98,350.34,340.98,14.18,0000 0000 0000 0000 000000
2015-07-02 09:38:21,0.01,0.11,0.00,26.44,30.11,32.46,4.64,27.29,1007.76,2025.90,3435.01,3267.17,3546.94,350.02,340.76,14.21,0000 0000 0000 0000 000000
2015-07-02 09:43:22,0.01,0.11,0.00,26.47,30.11,32.44,4.75,27.23,1007.83,2025.88,3434.99,3267.03,3546.88,350.19,340.87,14.24,0000 0000 0000 0000 000000
2015-07-02 09:48:23,0.01,0.11,0.00,26.49,30.10,32.43,4.69,27.17,1007.83,2025.93,3434.94,3267.02,3546.79,350.20,340.82,14.27,0000 0000 0000 0000 000000
2015-07-02 09:53:25,0.01,0.11,0.00,26.50,30.10,32.43,4.71,27.07,1007.85,2025.97,3434.83,3267.01,3546.68,350.54,341.21,14.30,0000 0000 0000 0000 000000
2015-07-02 09:58:26,0.02,0.11,0.00,26.50,30.10,32.42,4.68,27.10,1007.91,2025.96,3434.34,3267.00,3546.29,349.74,340.55,14.33,0000 0000 0000 0000 000000
2015-07-02 10:03:27,0.01,0.11,0.00,26.50,30.10,32.42,4.67,27.08,1007.91,2025.96,3434.09,3267.00,3546.11,349.42,340.10,14.36,0000 0000 0000 0000 000000
2015-07-02 10:08:28,0.00,0.11,0.00,26.50,30.11,32.41,4.68,27.17,1007.96,2025.98,3434.02,3267.00,3546.07,350.11,340.80,14.39,0000 0000 0000 0000 000000
2015-07-02 10:13:30,-0.00,0.11,0.00,26.50,30.12,32.41,4.74,27.18,1008.14,2025.98,3434.00,3267.00,3546.01,349.82,340.67,14.42,0000 0000 0000 0000 000000
2015-07-02 10:18:31,0.00,0.11,0.00,26.50,30.12,32.43,4.69,27.13,1008.31,2025.99,3434.00,3266.99,3546.01,350.12,340.84,14.44,0000 0000 0000 0000 000000
2015-07-02 10:23:32,0.00,0.11,0.00,26.50,30.12,32.42,4.67,27.18,1008.31,2025.99,3434.00,3266.99,3546.02,349.90,340.65,14.47,0000 0000 0000 0000 000000
2015-07-02 10:28:34,-0.00,0.11,0.00,26.50,30.12,32.42,4.74,27.01,1008.31,2025.99,3434.00,3266.99,3546.00,350.27,341.18,14.50,0000 0000 0000 0000 000000
2015-07-02 10:33:35,0.00,0.11,0.00,26.52,30.12,32.43,4.67,26.98,1008.31,2025.99,3433.95,3266.96,3546.00,349.97,340.77,14.53,0000 0000 0000 0000 000000
2015-07-02 10:38:36,0.02,0.11,0.00,26.52,30.12,32.44,4.71,27.23,1008.32,2025.99,3433.64,3266.87,3545.99,349.74,340.62,14.56,0000 0000 0000 0000 000000
2015-07-02 10:43:38,0.01,0.11,0.00,26.51,30.12,32.43,4.68,27.01,1008.32,2025.98,3433.25,3266.76,3545.97,350.14,340.96,14.59,0000 0000 0000 0000 000000
2015-07-02 10:48:39,0.02,0.11,0.00,26.50,30.13,32.43,4.73,27.01,1008.32,2025.99,3433.08,3266.48,3545.95,349.97,340.83,14.62,0000 0000 0000 0000 000000
2015-07-02 10:53:40,0.02,0.12,0.00,26.50,30.14,32.44,4.67,26.94,1008.32,2025.99,3433.02,3266.20,3545.78,350.00,340.78,14.65,0000 0000 0000 0000 000000
2015-07-02 10:58:41,0.01,0.12,0.00,26.50,30.15,32.45,4.65,27.06,1008.32,2025.98,3432.99,3266.02,3545.21,350.02,340.90,14.68,0000 0000 0000 0000 000000
2015-07-02 11:03:42,-0.00,0.12,0.00,26.51,30.15,32.45,4.64,27.08,1008.32,2025.98,3432.98,3266.01,3545.09,350.39,341.11,14.71,0000 0000 0000 0000 000000
2015-07-02 11:08:43,0.00,0.12,0.00,26.52,30.15,32.44,4.66,27.02,1008.30,2025.98,3432.97,3266.00,3545.02,349.87,340.54,14.74,0000 0000 0000 0000 000000
2015-07-02 11:13:44,0.00,0.12,0.00,26.52,30.15,32.45,4.71,27.11,1008.21,2025.99,3432.94,3266.00,3545.02,349.47,340.25,14.77,0000 0000 0000 0000 000000
2015-07-02 11:18:46,0.00,0.12,0.00,26.52,30.15,32.44,4.65,27.01,1008.02,2025.98,3432.85,3266.00,3545.00,350.30,341.05,14.80,0000 0000 0000 0000 000000
2015-07-02 11:23:47,0.02,0.12,0.00,26.52,30.15,32.45,4.64,27.02,1008.02,2025.99,3432.43,3266.00,3545.00,349.29,340.15,14.83,0000 0000 0000 0000 000000
2015-07-02 11:28:48,0.00,0.12,0.00,26.52,30.16,32.47,4.68,27.09,1008.20,2025.95,3432.05,3265.98,3544.98,350.25,340.98,14.85,0000 0000 0000 0000 000000
2015-07-02 11:33:50,0.00,0.12,0.00,26.52,30.17,32.48,4.64,27.06,1008.26,2025.94,3432.01,3265.90,3544.91,350.08,340.86,14.88,0000 0000 0000 0000 000000
2015-07-02 11:38:51,0.01,0.12,0.00,26.52,30.17,32.49,4.73,27.19,1008.28,2025.92,3432.00,3265.70,3544.70,350.27,341.02,14.91,0000 0000 0000 0000 000000
2015-07-02 11:43:52,0.01,0.12,0.00,26.52,30.17,32.49,4.68,27.05,1008.24,2025.89,3431.99,3265.47,3544.37,349.94,340.57,14.94,0000 0000 0000 0000 000000
2015-07-02 11:48:53,-0.00,0.12,0.00,26.52,30.17,32.50,4.70,27.06,1008.16,2025.96,3431.99,3265.73,3544.55,349.84,340.49,14.97,0000 0000 0000 0000 000000
2015-07-02 11:53:54,0.01,0.12,0.00,26.52,30.17,32.50,4.69,26.97,1008.16,2025.97,3431.98,3265.50,3544.34,349.91,340.66,15.00,0000 0000 0000 0000 000000
2015-07-02 11:58:56,0.02,0.12,0.00,26.52,30.17,32.49,4.67,26.97,1008.19,2025.97,3431.87,3265.20,3544.13,350.13,340.87,15.03,0000 0000 0000 0000 000000
2015-07-02 12:03:57,0.01,0.12,0.00,26.52,30.17,32.50,4.69,27.02,1008.13,2025.94,3431.52,3265.05,3544.02,349.87,340.59,15.06,0000 0000 0000 0000 000000
2015-07-02 12:08:58,0.00,0.12,0.00,26.52,30.18,32.50,4.69,26.97,1008.10,2025.97,3431.38,3265.05,3544.01,349.99,340.67,15.09,0000 0000 0000 0000 000000
2015-07-02 12:13:59,-0.00,0.12,0.00,26.52,30.18,32.52,4.65,27.00,1008.07,2025.94,3431.04,3265.01,3544.00,349.67,340.48,15.12,0000 0000 0000 0000 000000
2015-07-02 12:19:01,-0.00,0.12,0.00,26.52,30.19,32.52,4.72,27.01,1008.08,2025.90,3431.00,3265.00,3544.00,350.08,340.65,15.15,0000 0000 0000 0000 000000
2015-07-02 12:24:02,0.00,0.12,0.00,26.53,30.20,32.52,4.70,26.90,1008.01,2025.91,3431.00,3265.00,3543.98,350.31,341.00,15.18,0000 0000 0000 0000 000000
2015-07-02 12:29:03,-0.00,0.12,0.00,26.54,30.20,32.52,4.67,26.98,1007.87,2025.87,3430.97,3265.00,3543.96,349.62,340.20,15.21,0000 0000 0000 0000 000000
2015-07-02 12:34:05,0.00,0.12,0.00,26.57,30.20,32.52,4.71,26.95,1007.88,2025.88,3430.93,3264.98,3543.95,350.40,340.98,15.24,0000 0000 0000 0000 000000
2015-07-02 12:39:06,-0.02,0.12,0.00,26.57,30.20,32.54,4.62,27.09,1007.85,2025.73,3430.44,3264.96,3543.53,349.83,340.50,15.26,0000 0000 0000 0000 000000
2015-07-02 12:44:07,0.01,0.12,0.00,26.58,30.20,32.52,4.63,26.85,1007.84,2025.59,3430.09,3264.74,3543.16,350.29,340.94,15.29,0000 0000 0000 0000 000000
2015-07-02 12:49:08,0.04,0.12,0.00,26.59,30.20,32.55,4.64,26.98,1007.86,2025.63,3430.00,3264.49,3543.04,349.86,340.53,15.32,0000 0000 0000 0000 000000
2015-07-02 12:54:10,0.02,0.12,0.00,26.60,30.20,32.53,4.69,27.02,1007.85,2025.82,3430.00,3264.39,3543.04,350.26,340.73,15.35,0000 0000 0000 0000 000000
2015-07-02 12:59:11,0.01,0.12,0.00,26.61,30.22,32.53,4.60,26.95,1007.84,2025.78,3429.97,3264.04,3543.00,349.71,339.97,15.38,0000 0000 0000 0000 000000